TimeCEST,TemperatureF,Dew PointF,Humidity,Sea Level PressureIn,VisibilityMPH,Wind Direction,Wind SpeedMPH,Gust SpeedMPH,PrecipitationIn,Events,Conditions,WindDirDegrees,DateUTC
12:15 AM,55.4,51.8,88,30.01,-9999.0,SSW,2.2,-,N/A,,Clear,200,2012-10-06 22:15:00
12:45 AM,57.2,51.8,82,29.98,-9999.0,SSW,4.5,-,N/A,,Clear,200,2012-10-06 22:45:00
1:15 AM,57.2,51.8,82,29.98,-9999.0,SSW,4.5,-,N/A,,Clear,200,2012-10-06 23:15:00
1:45 AM,57.2,51.8,82,29.98,-9999.0,SSW,4.5,-,N/A,,Clear,200,2012-10-06 23:45:00
2:15 AM,57.2,51.8,82,29.98,-9999.0,SSW,4.5,-,N/A,,Clear,210,2012-10-07 00:15:00
2:45 AM,57.2,51.8,82,29.98,-9999.0,SSW,4.5,-,N/A,,Clear,210,2012-10-07 00:45:00
3:15 AM,57.2,53.6,88,29.98,-9999.0,SW,4.5,-,N/A,,Clear,230,2012-10-07 01:15:00
3:45 AM,-9999,-9999,N/A,-9999,3.1,SW,4.5,-,N/A,Fog,Clear,220,2012-10-07 01:45:00
4:15 AM,57.2,53.6,88,29.95,-9999.0,SW,6.7,-,N/A,,Clear,230,2012-10-07 02:15:00
4:45 AM,57.2,53.6,88,29.95,-9999.0,SW,6.7,-,N/A,,Clear,230,2012-10-07 02:45:00
5:15 AM,55.4,53.6,94,29.95,-9999.0,SW,2.2,-,N/A,,Clear,220,2012-10-07 03:15:00
5:45 AM,55.4,53.6,94,29.95,-9999.0,WSW,2.2,-,N/A,,Clear,240,2012-10-07 03:45:00
6:15 AM,55.4,55.4,100,29.95,-9999.0,West,4.5,-,N/A,,Clear,260,2012-10-07 04:15:00
6:45 AM,-9999,-9999,N/A,-9999,3.1,WSW,4.5,-,N/A,Fog,Clear,240,2012-10-07 04:45:00
7:15 AM,55.4,55.4,100,29.95,5.0,West,2.2,-,N/A,,Unknown,270,2012-10-07 05:15:00
7:45 AM,57.2,55.4,94,29.95,5.0,West,4.5,-,N/A,,Unknown,270,2012-10-07 05:45:00
8:15 AM,57.2,55.4,94,29.95,5.0,West,2.2,-,N/A,,Unknown,260,2012-10-07 06:15:00
8:45 AM,57.2,55.4,94,29.95,5.0,West,2.2,-,N/A,,Unknown,260,2012-10-07 06:45:00
9:15 AM,59.0,57.2,94,29.95,4.3,WSW,2.2,-,N/A,,Unknown,250,2012-10-07 07:15:00
9:45 AM,-9999,-9999,N/A,-9999,3.1,SW,8.9,-,N/A,Rain-Thunderstorm,Rain Showers,230,2012-10-07 07:45:00
10:15 AM,60.8,57.2,88,29.92,5.0,West,6.7,-,N/A,,Unknown,270,2012-10-07 08:15:00
10:45 AM,62.6,57.2,82,29.92,5.0,West,6.7,-,N/A,,Unknown,280,2012-10-07 08:45:00
11:15 AM,62.6,57.2,82,29.92,-9999.0,WNW,2.2,-,N/A,,Clear,290,2012-10-07 09:15:00
11:45 AM,62.6,57.2,82,29.89,-9999.0,West,2.2,-,N/A,,Clear,280,2012-10-07 09:45:00
12:15 PM,64.4,57.2,77,29.89,-9999.0,Calm,Calm,-,N/A,,Clear,0,2012-10-07 10:15:00
12:45 PM,-9999,-9999,N/A,-9999,3.7,SW,8.9,-,N/A,Rain,Rain,230,2012-10-07 10:45:00
1:15 PM,66.2,57.2,73,29.89,-9999.0,WSW,2.2,-,N/A,,Clear,240,2012-10-07 11:15:00
1:45 PM,66.2,57.2,73,29.86,-9999.0,WSW,2.2,-,N/A,,Clear,250,2012-10-07 11:45:00
2:15 PM,68.0,57.2,68,29.86,-9999.0,WSW,4.5,-,N/A,,Clear,240,2012-10-07 12:15:00
2:45 PM,68.0,57.2,68,29.83,-9999.0,SSW,2.2,-,N/A,,Clear,210,2012-10-07 12:45:00
3:15 PM,69.8,57.2,64,29.83,-9999.0,SSW,4.5,-,N/A,,Clear,200,2012-10-07 13:15:00
3:45 PM,-9999,-9999,N/A,-9999,6.2,SW,8.9,-,N/A,,Mostly Cloudy,220,2012-10-07 13:45:00
4:15 PM,71.6,57.2,60,29.80,-9999.0,SW,2.2,-,N/A,,Clear,230,2012-10-07 14:15:00
4:45 PM,69.8,55.4,60,29.77,-9999.0,South,2.2,-,N/A,,Clear,170,2012-10-07 14:45:00
5:15 PM,68.0,57.2,68,29.77,6.2,SSE,2.2,-,N/A,,Mostly Cloudy,160,2012-10-07 15:15:00
5:28 PM,68.0,57.2,68,29.77,6.2,South,4.5,-,N/A,Rain,Light Rain Showers,170,2012-10-07 15:28:00
5:33 PM,66.2,57.2,73,29.77,6.2,South,4.5,-,N/A,Rain-Thunderstorm,Rain Showers,170,2012-10-07 15:33:00
5:45 PM,66.2,59.0,78,29.77,6.2,South,4.5,-,N/A,Thunderstorm,Mostly Cloudy,170,2012-10-07 15:45:00
6:15 PM,64.4,60.8,88,29.77,6.2,South,2.2,-,N/A,,Mostly Cloudy,190,2012-10-07 16:15:00
6:45 PM,-9999,-9999,N/A,-9999,6.2,WNW,22.4,38.0,N/A,,Mostly Cloudy,300,2012-10-07 16:45:00
7:02 PM,64.4,60.8,88,29.77,6.2,SW,4.5,-,N/A,Rain,Rain Showers,220,2012-10-07 17:02:00
7:15 PM,64.4,59.0,83,29.74,6.2,WSW,4.5,-,N/A,Rain,Light Rain Showers,240,2012-10-07 17:15:00
7:34 PM,66.2,57.2,73,29.74,6.2,WSW,15.7,44.7,N/A,Rain,Rain Showers,240,2012-10-07 17:34:00
7:38 PM,64.4,59.0,83,29.74,3.1,West,15.7,51.5,N/A,Rain,Rain Showers,260,2012-10-07 17:38:00
7:45 PM,59.0,57.2,94,29.77,3.1,West,31.3,51.5,N/A,Rain,Rain Showers,270,2012-10-07 17:45:00
8:15 PM,59.0,53.6,82,29.80,6.2,NNW,17.9,29.1,N/A,,Mostly Cloudy,330,2012-10-07 18:15:00
8:45 PM,59.0,53.6,82,29.83,6.2,NW,17.9,29.1,N/A,,Mostly Cloudy,320,2012-10-07 18:45:00
9:15 PM,55.4,51.8,88,29.86,6.2,WNW,20.1,38.0,N/A,,Mostly Cloudy,300,2012-10-07 19:15:00
9:45 PM,-9999,-9999,N/A,-9999,6.2,NW,15.7,-,N/A,,Mostly Cloudy,310,2012-10-07 19:45:00
10:15 PM,51.8,46.4,82,29.89,6.2,WNW,17.9,31.3,N/A,,Mostly Cloudy,300,2012-10-07 20:15:00
10:45 PM,50.0,46.4,87,29.92,-9999.0,WNW,20.1,31.3,N/A,,Clear,290,2012-10-07 20:45:00
11:45 PM,48.2,42.8,82,29.95,-9999.0,WNW,20.1,33.6,N/A,,Clear,300,2012-10-07 21:45:00